Hourly Weather Slutsk

Today, 20 September, Sunday

Time Temperature Precipitation Wind Pressure Humidity
00:00 +10°C° 0 mm 2 mps 752 mmHg 93%
01:00 +9°C° 0 mm 2 mps 752 mmHg 92%
02:00 +9°C° 0 mm 2 mps 753 mmHg 92%
03:00 +8°C° 0 mm 2 mps 753 mmHg 91%
04:00 +7°C° 0 mm 2 mps 753 mmHg 89%
05:00 +7°C° 0 mm 2 mps 753 mmHg 88%
06:00 +8°C° 0 mm 2 mps 753 mmHg 85%
07:00 +8°C° 0 mm 2 mps 754 mmHg 82%
08:00 +9°C° 0 mm 2 mps 754 mmHg 78%
09:00 +12°C° 0 mm 2 mps 754 mmHg 70%
10:00 +13°C° 0 mm 1 mps 754 mmHg 62%
11:00 +15°C° 0 mm 1 mps 754 mmHg 54%
12:00 +16°C° 0 mm 1 mps 754 mmHg 51%
13:00 +18°C° 0 mm 1 mps 754 mmHg 47%
14:00 +17°C° 0 mm 2 mps 754 mmHg 44%
15:00 +18°C° 0 mm 1 mps 753 mmHg 48%
16:00 +16°C° 0 mm 1 mps 753 mmHg 52%
17:00 +15°C° 0 mm 1 mps 753 mmHg 56%
18:00 +14°C° 0 mm 1 mps 753 mmHg 59%
19:00 +12°C° 0 mm 1 mps 753 mmHg 62%
20:00 +10°C° 0 mm 1 mps 753 mmHg 65%
21:00 +10°C° 0 mm 1 mps 753 mmHg 66%
22:00 +10°C° 0 mm 1 mps 753 mmHg 67%
23:00 +9°C° 0 mm 1 mps 753 mmHg 68%

Tomorrow, 21 September, Monday

Time Temperature Precipitation Wind Pressure Humidity
00:00 +9°C° 0 mm 1 mps 753 mmHg 70%
01:00 +9°C° 0 mm 1 mps 753 mmHg 71%
02:00 +9°C° 0 mm 1 mps 753 mmHg 72%
03:00 +9°C° 0 mm 1 mps 753 mmHg 75%
04:00 +9°C° 0 mm 1 mps 753 mmHg 78%
05:00 +8°C° 0 mm 1 mps 753 mmHg 81%
06:00 +10°C° 0 mm 1 mps 753 mmHg 79%
07:00 +11°C° 0 mm 1 mps 753 mmHg 78%
08:00 +12°C° 0 mm 1 mps 753 mmHg 76%
09:00 +14°C° 0 mm 2 mps 753 mmHg 71%
10:00 +16°C° 0 mm 2 mps 753 mmHg 65%
11:00 +18°C° 0 mm 2 mps 753 mmHg 60%
12:00 +19°C° 0 mm 2 mps 753 mmHg 57%
13:00 +20°C° 0 mm 3 mps 753 mmHg 55%
14:00 +20°C° 0 mm 3 mps 752 mmHg 53%
15:00 +20°C° 0 mm 2 mps 752 mmHg 56%
16:00 +19°C° 0 mm 2 mps 752 mmHg 60%
17:00 +18°C° 0 mm 2 mps 751 mmHg 64%
18:00 +17°C° 0 mm 2 mps 751 mmHg 67%
19:00 +15°C° 0 mm 2 mps 751 mmHg 70%
20:00 +14°C° 0 mm 2 mps 751 mmHg 74%
21:00 +13°C° 0 mm 2 mps 751 mmHg 75%
22:00 +13°C° 0 mm 2 mps 751 mmHg 76%
23:00 +11°C° 0 mm 3 mps 751 mmHg 77%

Day after tomorrow, 22 September, Tuesday

Time Temperature Precipitation Wind Pressure Humidity
00:00 +11°C° 0 mm 3 mps 751 mmHg 78%
01:00 +10°C° 0 mm 3 mps 751 mmHg 80%
02:00 +10°C° 0 mm 3 mps 751 mmHg 81%
03:00 +10°C° 0 mm 2 mps 750 mmHg 82%
04:00 +10°C° 0 mm 2 mps 750 mmHg 83%
05:00 +9°C° 0 mm 2 mps 750 mmHg 84%
06:00 +10°C° 0 mm 2 mps 750 mmHg 80%
07:00 +11°C° 0 mm 3 mps 750 mmHg 76%
08:00 +13°C° 0 mm 3 mps 750 mmHg 73%
09:00 +16°C° 0 mm 3 mps 750 mmHg 67%
10:00 +18°C° 0 mm 3 mps 750 mmHg 62%
11:00 +20°C° 0 mm 3 mps 750 mmHg 57%
12:00 +21°C° 0 mm 3 mps 750 mmHg 55%
13:00 +22°C° 0 mm 3 mps 750 mmHg 53%
14:00 +24°C° 0 mm 3 mps 749 mmHg 51%
15:00 +22°C° 0 mm 3 mps 749 mmHg 56%
16:00 +21°C° 0 mm 2 mps 749 mmHg 60%
17:00 +21°C° 0 mm 2 mps 749 mmHg 65%
18:00 +19°C° 0 mm 2 mps 749 mmHg 68%
19:00 +18°C° 0 mm 2 mps 749 mmHg 71%
20:00 +16°C° 0 mm 2 mps 749 mmHg 74%
21:00 +16°C° 0 mm 2 mps 749 mmHg 74%
22:00 +15°C° 0 mm 2 mps 749 mmHg 74%
23:00 +15°C° 0 mm 2 mps 748 mmHg 75%

23 September, Wednesday

Time Temperature Precipitation Wind Pressure Humidity
00:00 +14°C° 0 mm 2 mps 748 mmHg 76%
01:00 +14°C° 0 mm 2 mps 748 mmHg 77%
02:00 +12°C° 0 mm 3 mps 748 mmHg 78%
03:00 +12°C° 0 mm 3 mps 748 mmHg 76%
04:00 +12°C° 0 mm 3 mps 748 mmHg 75%
05:00 +11°C° 0 mm 3 mps 748 mmHg 73%
06:00 +12°C° 0 mm 3 mps 748 mmHg 69%
07:00 +13°C° 0 mm 3 mps 748 mmHg 64%
08:00 +13°C° 0 mm 4 mps 748 mmHg 60%
09:00 +15°C° 0 mm 4 mps 748 mmHg 55%
10:00 +18°C° 0 mm 4 mps 748 mmHg 51%
11:00 +20°C° 0 mm 4 mps 748 mmHg 46%
12:00 +21°C° 0 mm 4 mps 747 mmHg 44%
13:00 +22°C° 0 mm 5 mps 747 mmHg 41%
14:00 +23°C° 0 mm 5 mps 747 mmHg 38%
15:00 +22°C° 0 mm 4 mps 747 mmHg 43%
16:00 +21°C° 0 mm 4 mps 746 mmHg 47%
17:00 +20°C° 0 mm 3 mps 746 mmHg 52%
18:00 +18°C° 0 mm 3 mps 746 mmHg 53%
19:00 +16°C° 0 mm 3 mps 746 mmHg 54%
20:00 +14°C° 0 mm 3 mps 746 mmHg 56%
21:00 +14°C° 0 mm 3 mps 746 mmHg 55%
22:00 +13°C° 0 mm 3 mps 746 mmHg 55%
23:00 +13°C° 0 mm 3 mps 746 mmHg 54%

24 September, Thursday

Time Temperature Precipitation Wind Pressure Humidity
00:00 +12°C° 0 mm 3 mps 746 mmHg 54%
01:00 +12°C° 0 mm 3 mps 746 mmHg 54%
02:00 +12°C° 0 mm 3 mps 745 mmHg 54%
03:00 +11°C° 0 mm 3 mps 745 mmHg 54%
04:00 +11°C° 0 mm 3 mps 745 mmHg 54%
05:00 +10°C° 0 mm 3 mps 745 mmHg 54%
06:00 +11°C° 0 mm 3 mps 745 mmHg 54%
07:00 +12°C° 0 mm 4 mps 745 mmHg 54%
08:00 +13°C° 0 mm 4 mps 745 mmHg 54%
09:00 +15°C° 0 mm 4 mps 745 mmHg 53%
10:00 +18°C° 0 mm 4 mps 745 mmHg 51%
11:00 +20°C° 0 mm 4 mps 745 mmHg 49%
12:00 +21°C° 0 mm 5 mps 745 mmHg 47%
13:00 +22°C° 0 mm 5 mps 745 mmHg 46%
14:00 +25°C° 0 mm 5 mps 744 mmHg 44%
15:00 +23°C° 0 mm 4 mps 744 mmHg 49%
16:00 +22°C° 0 mm 4 mps 744 mmHg 53%
17:00 +21°C° 0 mm 3 mps 744 mmHg 57%
18:00 +20°C° 0 mm 4 mps 744 mmHg 60%
19:00 +18°C° 0 mm 4 mps 744 mmHg 62%
20:00 +17°C° 0 mm 4 mps 744 mmHg 65%
21:00 +17°C° 0.1 mm 4 mps 744 mmHg 67%
22:00 +17°C° 0.1 mm 3 mps 744 mmHg 70%
23:00 +16°C° 0.1 mm 3 mps 744 mmHg 72%

25 September, Friday

Time Temperature Precipitation Wind Pressure Humidity
00:00 +16°C° 0.4 mm 3 mps 744 mmHg 76%
01:00 +14°C° 0.4 mm 3 mps 744 mmHg 81%
02:00 +14°C° 0.4 mm 3 mps 744 mmHg 85%
03:00 +13°C° 0.1 mm 3 mps 744 mmHg 86%
04:00 +13°C° 0.1 mm 3 mps 743 mmHg 86%
05:00 +13°C° 0.1 mm 3 mps 743 mmHg 87%
06:00 +13°C° 0 mm 3 mps 743 mmHg 84%
07:00 +14°C° 0 mm 4 mps 743 mmHg 80%
08:00 +15°C° 0 mm 4 mps 742 mmHg 77%
09:00 +18°C° 0 mm 4 mps 742 mmHg 70%
10:00 +20°C° 0 mm 5 mps 742 mmHg 64%
11:00 +21°C° 0 mm 5 mps 742 mmHg 58%
12:00 +22°C° 0 mm 5 mps 741 mmHg 54%
13:00 +24°C° 0 mm 6 mps 741 mmHg 50%
14:00 +26°C° 0 mm 6 mps 740 mmHg 45%
15:00 +25°C° 0 mm 5 mps 740 mmHg 50%
16:00 +23°C° 0 mm 5 mps 739 mmHg 55%
17:00 +22°C° 0 mm 4 mps 739 mmHg 59%
18:00 +21°C° 0 mm 5 mps 739 mmHg 56%
19:00 +20°C° 0 mm 5 mps 738 mmHg 53%
20:00 +20°C° 0 mm 6 mps 738 mmHg 50%
21:00 +19°C° 0 mm 6 mps 738 mmHg 50%
22:00 +19°C° 0 mm 6 mps 737 mmHg 49%
23:00 +19°C° 0 mm 6 mps 737 mmHg 49%
Show more